Home > Time Zones > World Clock > Weather > Spain > Lugo > Past weeks

Flag for Spain Weather past 2 weeks in Lugo, Galicia, Spain

Now
48 °F

Partly cloudy.


Feels Like: 42 °F
Forecast: 36 / 42 °F
Wind: 15 mph from Northwest

Location: Santiago / Labacolla

Current Time: Jan 31, 2015 at 2:36:36 AM

Latest Report: Jan 31, 2015 at 2:00 AM


Visibility: N/A

Pressure: 29.50 "Hg

Humidity: 82%

Dew point: 43 °F

Location of LugoLocation

Historic Weather in Lugo — Graph

°F

Lugo temperature yesterday

Maximum temperature yesterday: 54 °F (at 1:00 PM)
Minimum temperature yesterday: 50 °F (at 12:00 AM)
Average temperature yesterday: 51 °F

Past Weeks' High & Low Weather Summary

 TemperatureHumidityPressure
High54 °F (Jan 24, 2:30 PM)100% (Jan 16, 2:00 AM)30.54 "Hg (Jan 16, 2:00 AM)
Low30 °F (Jan 26, 4:30 AM)66% (Jan 19, 4:00 PM)29.47 "Hg (Jan 31, 1:00 AM)
Average44 °F93%30.16 "Hg
* Reported Jan 16 1:00 AM — Jan 31 1:30 AM, Lugo, Weather by CustomWeather, © 2014

Note: Actual official high and low records may vary slightly from our data, if they occured in-between our weather recording intervals... More about our weather records

Advertising

Lugo weather history for previous 24 hours

 ConditionsComfort  
Time TempWeatherWind HumidityBarometerVisibility
1:30 AM
Jan 31
48 °FSprinkles. Partly cloudy.14 mph87%29.47 "HgN/A
1:00 AM48 °FPassing clouds.14 mph87%29.47 "HgN/A
12:30 AM48 °FRain showers. Passing clouds.16 mph94%29.50 "Hg4 mi
12:00 AM48 °FPartly cloudy.13 mph94%29.50 "HgN/A
11:30 PM
Jan 30
50 °FPassing clouds.15 mph88%29.50 "HgN/A
11:00 PM50 °FLight rain. Partly cloudy.14 mph88%29.53 "HgN/A
10:30 PM50 °FPartly cloudy.16 mph94%29.53 "HgN/A
10:00 PM50 °FPartly cloudy.18 mph94%29.53 "Hg6 mi
9:30 PM52 °FPartly cloudy.18 mph94%29.53 "Hg6 mi
9:00 PM50 °FRain. Fog.13 mph100%29.53 "Hg2 mi
8:30 PM52 °FLight rain. Passing clouds.13 mph94%29.53 "Hg4 mi
8:00 PM52 °FLight rain. Partly cloudy.14 mph94%29.53 "Hg4 mi
7:30 PM52 °FLight rain. Partly cloudy.12 mph94%29.53 "Hg5 mi
7:00 PM52 °FLight rain. Mostly cloudy.13 mph100%29.53 "Hg4 mi
6:30 PM52 °FLight rain. Cloudy.13 mph100%29.53 "Hg3 mi
6:00 PM52 °FLight rain. Mostly cloudy.13 mph100%29.53 "Hg4 mi
5:30 PM52 °FLight rain. Mostly cloudy.13 mph100%29.56 "Hg4 mi
5:00 PM52 °FLight rain. Fog.12 mph100%29.56 "Hg2 mi
4:30 PM52 °FLight rain. Fog.12 mph100%29.56 "Hg1 mi
4:00 PM52 °FLight rain. Fog.13 mph100%29.59 "Hg3 mi
3:30 PM54 °FLight rain. Fog.13 mph94%29.59 "Hg2 mi
3:00 PM54 °FLight rain. Fog.12 mph94%29.62 "Hg2 mi
2:30 PM54 °FLight rain. Fog.14 mph94%29.62 "Hg2 mi
2:00 PM54 °FLight rain. Fog.15 mph94%29.65 "Hg2 mi
1:30 PM54 °FLight rain. Fog.10 mph94%29.65 "Hg2 mi
1:00 PM54 °FRain. Fog.13 mph94%29.68 "Hg2 mi
12:30 PM52 °FDrizzle. Fog.13 mph100%29.68 "Hg3 mi
12:00 PM52 °FDrizzle. Fog.12 mph100%29.68 "Hg3 mi
11:30 AM52 °FDrizzle. Fog.12 mph100%29.68 "Hg3 mi
11:00 AM52 °FDrizzle. Fog.12 mph100%29.71 "Hg1 mi
10:30 AM52 °FDrizzle. Fog.14 mph94%29.71 "Hg2 mi
10:00 AM52 °FDrizzle. Mostly cloudy.10 mph100%29.71 "Hg4 mi
9:30 AM52 °FMore clouds than sun.10 mph94%29.71 "Hg4 mi
9:00 AM52 °FMostly cloudy.13 mph94%29.74 "Hg4 mi
8:30 AM52 °FDrizzle. Mostly cloudy.9 mph100%29.74 "Hg2 mi
8:00 AM52 °FPartly cloudy.10 mph94%29.74 "Hg2 mi
7:30 AM50 °FPartly cloudy.9 mph100%29.77 "Hg2 mi
7:00 AM50 °FPassing clouds.7 mph100%29.77 "Hg2 mi
6:30 AM50 °FPassing clouds.9 mph100%29.77 "Hg2 mi
6:00 AM50 °FPassing clouds.12 mph100%29.77 "Hg4 mi
5:30 AM50 °FDrizzle. Mostly cloudy.9 mph100%29.80 "Hg2 mi
5:00 AM50 °FPartly cloudy.8 mph100%29.80 "Hg2 mi
4:30 AM50 °FPartly cloudy.8 mph100%29.83 "Hg2 mi
4:00 AM50 °FPartly cloudy.8 mph100%29.83 "Hg2 mi
3:30 AM50 °FPartly cloudy.8 mph100%29.83 "Hg2 mi
3:00 AM50 °FPartly cloudy.8 mph100%29.83 "Hg4 mi
2:30 AM50 °FPartly cloudy.7 mph100%29.86 "Hg2 mi
2:00 AM50 °FPassing clouds.7 mph100%29.86 "Hg2 mi
Weather by CustomWeather, © 2014

See weather overviewHow to use our weather pages